Location: Newark
(46.3833°N, 6.2000°E)
Time: 14:33:07
(UTC+00:00)

N. Korean satellite - Pass Details

Date: 28 February 2020
Orbit: 454 x 507 km, 97.2° (Epoch: 06 April)

Event Time Altitude Azimuth Distance (km) Brightness Sun altitude
Rises 05:14:30 0° 15° (NNE) 2,622 10.5 -11.6°
Reaches altitude 10° 05:16:38 10° 18° (NNE) 1,728 9.6 -11.3°
Maximum altitude 05:20:19 63° 100° (E) 565 7.2 -10.6°
Drops below altitude 10° 05:23:57 10° 183° (S) 1,693 9.3 -10.0°
Sets 05:26:01 0° 186° (S) 2,562 10.2 -9.7°
